Springfield, MO

1:34 AM CST on December 16, 2019 (GMT -0600)
Springfield-Branson Regional

Weather History for KSGF - October, 2019

Change the Weather History Date:

Thursday, October 24, 2019

  Actual Average Record
Temperature  
Mean Temperature 50 °F 55 °F  
Max Temperature 57 °F 67 °F 84 °F (1939)
Min Temperature 43 °F 44 °F 23 °F (1999)
Degree Days  
Heating Degree Days 15 10  
Month to date heating degree days 187 173  
Since 1 July heating degree days 187 228  
Cooling Degree Days 0 0  
Month to date cooling degree days 37 27  
Year to date cooling degree days 1687 1386  
Growing Degree Days 1 (Base 50)    
Moisture  
Dew Point 43 °F    
Average Humidity 75    
Maximum Humidity 96    
Minimum Humidity 53    
Precipitation  
Precipitation 1.06 in 0.12 in 1.64 in (1905)
Month to date precipitation 6.41 2.78  
Year to date precipitation 48.10 37.50  
Snow  
Snow 0.00 in - - ()
Month to date snowfall 0.0  
Since 1 July snowfall 0.0  
Since 1 September snowfall 0.0  
Snow Depth 0.00 in    
Sea Level Pressure  
Sea Level Pressure 30.23 in    
Wind  
Wind Speed 11 mph (NNE)    
Max Wind Speed 21 mph    
Max Gust Speed 27 mph    
Visibility 8 miles    
Events Rain    
T = Trace of Precipitation, MM = Missing Value Source: NWS Daily Summary

Daily Weather History Graph

Daily Weather History Graph

Search for Another Location

Airport or City:

Astronomy

Oct. 24, 2019 Rise Set
Actual Time 7:29 AM CDT 6:25 PM CDT
Civil Twilight 7:03 AM CDT 6:51 PM CDT
Nautical Twilight 6:32 AM CDT 7:22 PM CDT
Astronomical Twilight 6:02 AM CDT 7:52 PM CDT
Moon 3:08 AM CDT (10/24) 4:46 PM CDT (10/24)
Length of Visible Light 11h 48m
Length of Day
10h 55m
Waning Crescent, 16% of the Moon is Illuminated
Oct 24
Waning Crescent
Oct 27
New
Nov 4
First Quarter
Nov 12
Full
Nov 19
Last Quarter

Hourly Weather History & Observations

Time (CDT) Temp. Windchill Dew Point Humidity Pressure Visibility Wind Dir Wind Speed Gust Speed Precip Events Conditions
12:52 AM 59.0 °F - 42.1 °F 53% 30.10 in 10.0 mi Variable 4.6 mph 23.0 mph N/A   Mostly Cloudy
1:52 AM 55.0 °F - 42.1 °F 62% 30.11 in 10.0 mi NE 5.8 mph - N/A   Partly Cloudy
2:52 AM 54.0 °F - 41.0 °F 62% 30.12 in 10.0 mi North 6.9 mph - N/A   Clear
3:52 AM 54.0 °F - 41.0 °F 62% 30.13 in 10.0 mi NNE 9.2 mph - N/A   Overcast
4:52 AM 52.0 °F - 43.0 °F 71% 30.15 in 10.0 mi NNE 6.9 mph - 0.00 in Rain Light Rain
5:52 AM 50.0 °F - 44.1 °F 80% 30.18 in 9.0 mi NNE 6.9 mph - 0.02 in Rain Light Rain
6:52 AM 48.9 °F - 45.0 °F 86% 30.22 in 6.0 mi NNE 5.8 mph - 0.10 in Rain Rain
7:52 AM 48.0 °F - 46.0 °F 93% 30.22 in 5.0 mi NE 10.4 mph - 0.17 in Rain Rain
8:52 AM 48.0 °F - 45.0 °F 89% 30.23 in 4.0 mi NE 15.0 mph 24.2 mph 0.23 in Rain Rain
9:36 AM 46.9 °F - 44.1 °F 90% 30.24 in 6.0 mi NE 12.7 mph 23.0 mph 0.12 in Rain Light Rain
9:48 AM 46.4 °F 40.7 °F 44.6 °F 93% 30.25 in 6.0 mi NE 12.7 mph - 0.14 in Rain Light Rain
9:52 AM 46.9 °F - 44.1 °F 90% 30.25 in 6.0 mi NE 13.8 mph - 0.14 in Rain Light Rain
10:52 AM 46.9 °F - 44.1 °F 90% 30.25 in 7.0 mi NE 11.5 mph - 0.06 in Rain Light Rain
11:52 AM 46.9 °F - 44.1 °F 90% 30.28 in 7.0 mi NNE 9.2 mph - 0.04 in Rain Light Rain
12:00 PM 46.9 °F - 44.1 °F 90% 30.27 in 7.0 mi NNE 10.4 mph - 0.01 in Rain Light Rain
12:29 PM 46.9 °F - 44.1 °F 90% 30.27 in 8.0 mi NNE 11.5 mph - 0.03 in Rain Light Rain
12:52 PM 46.9 °F - 44.1 °F 90% 30.28 in 10.0 mi North 8.1 mph - 0.04 in Rain Light Rain
1:24 PM 48.0 °F - 44.1 °F 86% 30.26 in 8.0 mi NNE 8.1 mph - 0.01 in Rain Light Rain
1:33 PM 46.9 °F - 44.1 °F 90% 30.25 in 7.0 mi NNE 9.2 mph - 0.01 in Rain Light Rain
1:44 PM 48.0 °F - 44.1 °F 86% 30.25 in 6.0 mi NNE 9.2 mph - 0.02 in Rain Light Rain
1:52 PM 46.9 °F - 44.1 °F 90% 30.25 in 7.0 mi NNE 8.1 mph - 0.02 in Rain Light Rain
1:59 PM 48.0 °F - 44.1 °F 86% 30.25 in 7.0 mi North 6.9 mph - 0.01 in Rain Light Rain
2:52 PM 46.9 °F - 44.1 °F 90% 30.22 in 7.0 mi NE 12.7 mph - 0.03 in Rain Light Rain
3:52 PM 46.0 °F 39.6 °F 43.0 °F 89% 30.21 in 10.0 mi NE 15.0 mph - 0.02 in Rain Light Rain
4:52 PM 45.0 °F 40.1 °F 43.0 °F 93% 30.24 in 8.0 mi North 9.2 mph - 0.02 in Rain Light Rain
5:52 PM 45.0 °F 38.5 °F 42.1 °F 90% 30.25 in 10.0 mi NE 13.8 mph - 0.01 in   Overcast
6:52 PM 45.0 °F 39.7 °F 42.1 °F 90% 30.27 in 10.0 mi NNE 10.4 mph - 0.02 in Rain Light Rain
7:52 PM 44.1 °F 37.4 °F 42.1 °F 93% 30.29 in 8.0 mi NNE 13.8 mph - 0.04 in Rain Light Rain
8:52 PM 44.1 °F 37.7 °F 41.0 °F 89% 30.30 in 8.0 mi NNE 12.7 mph - 0.04 in Rain Light Rain
9:52 PM 44.1 °F 37.4 °F 41.0 °F 89% 30.30 in 10.0 mi NNE 13.8 mph - 0.03 in Rain Light Rain
10:52 PM 43.0 °F 36.8 °F 41.0 °F 93% 30.30 in 10.0 mi NE 11.5 mph - 0.02 in Rain Light Rain
11:52 PM 43.0 °F 35.7 °F 41.0 °F 93% 30.27 in 10.0 mi NNE 15.0 mph - 0.01 in Rain Light Rain